When you browse on this site, cookies collect data to enhance your experience and personalize the content and advertising you see.
Visit our Privacy Policy to learn more. By continuing to use the site, you agree to this use of cookies and data.
  • In Austria
  • List of Countries
  • For 7 days
  • Water Temperature
  • Weather Map
  • News
  • Weather Widgets
  • user-avatar
    Login

    Hourly Weather Faro

    Today, 3 April, Friday

    Time Temperature Precipitation Wind Pressure Humidity
    00:00 +10°C° 0 mm 3 mps 761 mmHg 83%
    01:00 +10°C° 0 mm 2 mps 760 mmHg 84%
    02:00 +10°C° 0 mm 2 mps 760 mmHg 85%
    03:00 +10°C° 0 mm 2 mps 760 mmHg 84%
    04:00 +10°C° 0 mm 2 mps 760 mmHg 84%
    05:00 +9°C° 0 mm 2 mps 760 mmHg 84%
    06:00 +13°C° 0 mm 2 mps 760 mmHg 75%
    07:00 +15°C° 0 mm 2 mps 760 mmHg 66%
    08:00 +18°C° 0 mm 2 mps 760 mmHg 57%
    09:00 +19°C° 0 mm 2 mps 760 mmHg 53%
    10:00 +20°C° 0 mm 3 mps 760 mmHg 48%
    11:00 +21°C° 0 mm 3 mps 760 mmHg 43%
    12:00 +21°C° 0 mm 3 mps 760 mmHg 44%
    13:00 +21°C° 0 mm 3 mps 759 mmHg 45%
    14:00 +21°C° 0 mm 3 mps 758 mmHg 45%
    15:00 +20°C° 0 mm 3 mps 758 mmHg 49%
    16:00 +19°C° 0 mm 2 mps 758 mmHg 53%
    17:00 +19°C° 0 mm 1 mps 758 mmHg 57%
    18:00 +17°C° 0 mm 2 mps 758 mmHg 60%
    19:00 +14°C° 0 mm 3 mps 758 mmHg 64%
    20:00 +13°C° 0 mm 3 mps 759 mmHg 67%
    21:00 +13°C° 0 mm 5 mps 758 mmHg 73%
    22:00 +11°C° 0 mm 6 mps 758 mmHg 78%
    23:00 +11°C° 0 mm 7 mps 758 mmHg 84%

    Tomorrow, 4 April, Saturday

    Time Temperature Precipitation Wind Pressure Humidity
    00:00 +11°C° 0 mm 8 mps 758 mmHg 83%
    01:00 +11°C° 0 mm 9 mps 757 mmHg 82%
    02:00 +11°C° 0 mm 10 mps 757 mmHg 82%
    03:00 +11°C° 0 mm 9 mps 757 mmHg 83%
    04:00 +11°C° 0 mm 9 mps 757 mmHg 83%
    05:00 +10°C° 0 mm 9 mps 757 mmHg 84%
    06:00 +12°C° 0 mm 9 mps 757 mmHg 82%
    07:00 +13°C° 0 mm 9 mps 757 mmHg 79%
    08:00 +15°C° 0 mm 9 mps 758 mmHg 77%
    09:00 +16°C° 0.1 mm 10 mps 758 mmHg 76%
    10:00 +16°C° 0.1 mm 10 mps 758 mmHg 75%
    11:00 +17°C° 0.1 mm 10 mps 758 mmHg 74%
    12:00 +17°C° 0.1 mm 9 mps 758 mmHg 76%
    13:00 +17°C° 0.1 mm 9 mps 758 mmHg 77%
    14:00 +16°C° 0.1 mm 8 mps 758 mmHg 79%
    15:00 +16°C° 0 mm 8 mps 758 mmHg 81%
    16:00 +16°C° 0 mm 7 mps 758 mmHg 82%
    17:00 +16°C° 0 mm 6 mps 758 mmHg 84%
    18:00 +15°C° 0 mm 7 mps 758 mmHg 88%
    19:00 +15°C° 0 mm 7 mps 759 mmHg 92%
    20:00 +14°C° 0 mm 7 mps 759 mmHg 95%
    21:00 +14°C° 0 mm 7 mps 759 mmHg 95%
    22:00 +14°C° 0 mm 7 mps 759 mmHg 95%
    23:00 +14°C° 0 mm 7 mps 759 mmHg 95%

    Day after tomorrow, 5 April, Sunday

    Time Temperature Precipitation Wind Pressure Humidity
    00:00 +14°C° 0 mm 7 mps 759 mmHg 95%
    01:00 +14°C° 0 mm 6 mps 759 mmHg 95%
    02:00 +14°C° 0 mm 6 mps 759 mmHg 95%
    03:00 +14°C° 0 mm 6 mps 759 mmHg 96%
    04:00 +14°C° 0 mm 6 mps 759 mmHg 96%
    05:00 +14°C° 0 mm 5 mps 759 mmHg 96%
    06:00 +15°C° 0 mm 6 mps 759 mmHg 93%
    07:00 +16°C° 0 mm 6 mps 760 mmHg 90%
    08:00 +17°C° 0 mm 7 mps 760 mmHg 87%
    09:00 +17°C° 0.3 mm 7 mps 760 mmHg 87%
    10:00 +17°C° 0.3 mm 7 mps 760 mmHg 86%
    11:00 +18°C° 0.3 mm 7 mps 760 mmHg 86%
    12:00 +18°C° 0.5 mm 7 mps 760 mmHg 85%
    13:00 +20°C° 0.5 mm 7 mps 760 mmHg 84%
    14:00 +20°C° 0.5 mm 7 mps 760 mmHg 83%
    15:00 +20°C° 0.4 mm 6 mps 760 mmHg 85%
    16:00 +19°C° 0.4 mm 6 mps 760 mmHg 87%
    17:00 +19°C° 0.4 mm 5 mps 760 mmHg 89%
    18:00 +17°C° 0.4 mm 5 mps 761 mmHg 91%
    19:00 +17°C° 0.4 mm 4 mps 761 mmHg 94%
    20:00 +15°C° 0.4 mm 4 mps 762 mmHg 96%
    21:00 +16°C° 0.1 mm 3 mps 762 mmHg 95%
    22:00 +14°C° 0.1 mm 3 mps 762 mmHg 95%
    23:00 +14°C° 0.1 mm 3 mps 762 mmHg 94%

    6 April, Monday

    Time Temperature Precipitation Wind Pressure Humidity
    00:00 +15°C° 0 mm 2 mps 762 mmHg 93%
    01:00 +14°C° 0 mm 2 mps 762 mmHg 93%
    02:00 +14°C° 0 mm 2 mps 762 mmHg 92%
    03:00 +14°C° 0 mm 2 mps 762 mmHg 92%
    04:00 +14°C° 0 mm 1 mps 763 mmHg 91%
    05:00 +13°C° 0 mm 1 mps 763 mmHg 91%
    06:00 +16°C° 0 mm 1 mps 763 mmHg 83%
    07:00 +19°C° 0 mm 1 mps 764 mmHg 75%
    08:00 +21°C° 0 mm 1 mps 764 mmHg 67%
    09:00 +22°C° 0 mm 1 mps 764 mmHg 62%
    10:00 +23°C° 0 mm 2 mps 765 mmHg 57%
    11:00 +25°C° 0 mm 2 mps 765 mmHg 52%
    12:00 +25°C° 0 mm 2 mps 765 mmHg 53%
    13:00 +24°C° 0 mm 2 mps 764 mmHg 55%
    14:00 +24°C° 0 mm 2 mps 764 mmHg 56%
    15:00 +23°C° 0 mm 2 mps 764 mmHg 61%
    16:00 +21°C° 0 mm 2 mps 764 mmHg 66%
    17:00 +20°C° 0 mm 2 mps 764 mmHg 70%
    18:00 +19°C° 0 mm 2 mps 764 mmHg 76%
    19:00 +18°C° 0 mm 2 mps 765 mmHg 82%
    20:00 +16°C° 0 mm 3 mps 766 mmHg 87%
    21:00 +16°C° 0 mm 2 mps 766 mmHg 87%
    22:00 +16°C° 0 mm 2 mps 766 mmHg 87%
    23:00 +15°C° 0 mm 2 mps 766 mmHg 86%

    7 April, Tuesday

    Time Temperature Precipitation Wind Pressure Humidity
    00:00 +15°C° 0 mm 2 mps 766 mmHg 86%
    01:00 +15°C° 0 mm 2 mps 765 mmHg 86%
    02:00 +15°C° 0 mm 2 mps 765 mmHg 86%
    03:00 +15°C° 0 mm 2 mps 765 mmHg 86%
    04:00 +15°C° 0 mm 2 mps 765 mmHg 86%
    05:00 +15°C° 0 mm 2 mps 765 mmHg 87%
    06:00 +17°C° 0 mm 3 mps 765 mmHg 80%
    07:00 +19°C° 0 mm 3 mps 765 mmHg 74%
    08:00 +21°C° 0 mm 4 mps 765 mmHg 67%
    09:00 +22°C° 0 mm 4 mps 765 mmHg 64%
    10:00 +23°C° 0 mm 4 mps 766 mmHg 60%
    11:00 +25°C° 0 mm 4 mps 766 mmHg 57%
    12:00 +25°C° 0 mm 4 mps 765 mmHg 58%
    13:00 +25°C° 0 mm 4 mps 765 mmHg 58%
    14:00 +25°C° 0 mm 3 mps 764 mmHg 59%
    15:00 +24°C° 0 mm 3 mps 764 mmHg 63%
    16:00 +23°C° 0 mm 2 mps 764 mmHg 67%
    17:00 +21°C° 0 mm 2 mps 764 mmHg 70%
    18:00 +20°C° 0 mm 2 mps 765 mmHg 76%
    19:00 +19°C° 0 mm 2 mps 765 mmHg 81%
    20:00 +17°C° 0 mm 2 mps 765 mmHg 86%
    21:00 +17°C° 0 mm 2 mps 766 mmHg 88%
    22:00 +16°C° 0 mm 3 mps 766 mmHg 89%
    23:00 +16°C° 0 mm 3 mps 766 mmHg 91%

    8 April, Wednesday

    Time Temperature Precipitation Wind Pressure Humidity
    00:00 +16°C° 0 mm 3 mps 765 mmHg 91%
    01:00 +14°C° 0 mm 3 mps 765 mmHg 91%
    02:00 +14°C° 0 mm 4 mps 764 mmHg 91%
    03:00 +14°C° 0 mm 4 mps 764 mmHg 90%
    04:00 +14°C° 0 mm 4 mps 764 mmHg 88%
    05:00 +14°C° 0 mm 4 mps 764 mmHg 87%
    06:00 +15°C° 0 mm 4 mps 764 mmHg 82%
    07:00 +16°C° 0 mm 5 mps 765 mmHg 77%
    08:00 +17°C° 0 mm 5 mps 765 mmHg 73%
    09:00 +20°C° 0 mm 4 mps 765 mmHg 67%
    10:00 +21°C° 0 mm 4 mps 765 mmHg 61%
    11:00 +23°C° 0 mm 4 mps 765 mmHg 56%
    12:00 +25°C° 0 mm 4 mps 764 mmHg 53%
    13:00 +25°C° 0 mm 3 mps 764 mmHg 51%
    14:00 +26°C° 0 mm 3 mps 764 mmHg 48%
    15:00 +25°C° 0 mm 3 mps 763 mmHg 54%
    16:00 +23°C° 0 mm 4 mps 763 mmHg 59%
    17:00 +21°C° 0 mm 4 mps 763 mmHg 64%
    18:00 +20°C° 0 mm 3 mps 764 mmHg 70%
    19:00 +18°C° 0 mm 3 mps 764 mmHg 77%
    20:00 +16°C° 0 mm 2 mps 765 mmHg 84%
    21:00 +16°C° 0 mm 2 mps 765 mmHg 85%
    22:00 +16°C° 0 mm 2 mps 765 mmHg 86%
    23:00 +16°C° 0 mm 2 mps 765 mmHg 88%
    Show more